SCP
0 0 0 0 0 0 0 0 0 0 0 0 0 0 0 1 1 1 1 1 1 1 1 1 1 1 2 2 2 2 2 2 2 2 2 2 2 1 1 1 1 1 1 1
0 0 0 0 0 0 0 0 0 0 0 0 0 0 1 1 1 1 1 1 1 1 1 1 1 2 2 2 2 2 2 2 2 2 2 2 2 2 2 1 1 1 1 1
0 0 0 0 0 0 0 0 0 0 0 0 0 0 1 1 1 1 1 1 1 1 1 1 2 2 2 2 2 2 2 2 2 2 2 2 2 2 2 2 2 1 1 1
0 0 0 0 0 0 0 0 0 0 0 0 0 0 1 1 1 1 1 1 1 1 1 1 2 2 2 2 2 2 2 2 2 2 2 2 2 2 2 2 2 2 2 1
0 0 0 0 0 0 0 0 0 0 0 0 0 0 1 1 1 1 1 1 1 1 1 1 2 2 2 1 1 1 2 2 2 2 2 2 2 2 2 2 2 2 1 1
0 0 0 0 0 0 0 0 0 0 0 0 0 0 1 1 1 1 1 1 1 1 1 2 2 2 2 1 1 1 1 1 2 2 2 2 2 2 2 2 2 2 1 1
0 0 0 0 0 0 0 0 0 0 0 0 0 0 1 1 1 1 1 1 1 1 2 2 2 2 2 2 2 1 1 1 2 2 2 2 2 2 2 2 2 1 1 1
0 0 0 0 0 0 0 1 0 0 0 1 1 1 1 1 1 1 1 1 1 2 2 2 2 2 2 2 2 1 1 1 2 2 1 2 2 2 2 2 1 1 1 1
0 0 0 0 0 0 0 0 0 0 0 0 1 1 1 1 1 1 1 1 1 2 2 2 2 2 2 2 2 2 2 2 2 2 1 2 2 2 2 1 1 1 1 1
0 0 0 0 0 0 0 0 0 0 0 0 1 1 1 1 1 1 1 2 2 2 2 2 2 2 2 2 2 2 2 2 2 1 1 1 2 1 1 1 1 1 1 1
0 0 0 0 0 0 0 0 0 0 0 0 1 1 1 1 1 2 2 2 2 2 2 2 2 1 1 2 2 2 2 1 1 1 1 1 1 1 1 1 1 1 1 1
0 0 0 0 0 0 0 0 0 0 0 0 1 1 1 1 2 2 2 2 2 2 1 1 1 1 1 2 2 2 2 1 1 1 1 1 1 1 1 1 0 0 0 0
0 0 0 0 0 0 0 0 0 0 0 0 1 1 1 1 2 2 2 2 2 1 1 1 1 1 1 2 2 2 1 1 1 1 1 1 1 1 1 1 0 0 0 0
0 0 0 0 0 0 0 0 0 0 0 0 1 1 1 1 2 2 2 2 1 1 1 1 1 1 1 2 2 2 1 1 1 1 1 1 1 1 1 1 1 1 0 0
0 0 0 0 0 0 0 0 0 0 0 0 1 1 1 1 1 1 1 1 1 1 1 1 1 1 1 1 1 1 1 1 1 1 1 1 0 0 0 1 1 1 1 0
0 0 0 0 0 0 0 0 0 0 0 0 1 1 1 1 1 1 1 1 1 1 1 1 1 1 1 1 1 1 1 1 0 1 0 0 0 0 0 0 1 1 1 1
0 0 0 0 0 0 0 0 0 0 0 0 1 1 1 1 1 1 1 1 1 1 1 1 1 1 1 1 1 1 0 0 0 0 0 0 0 0 0 0 1 1 1 0
0 0 0 0 0 0 0 0 0 0 0 1 1 1 1 1 1 1 1 1 1 1 1 0 0 1 1 1 1 0 0 0 0 0 0 0 0 0 0 0 1 1 0 0
0 0 0 0 0 0 0 0 0 0 1 1 1 1 1 1 1 1 1 1 1 1 0 0 0 0 0 1 0 0 0 0 0 0 0 0 0 0 0 0 1 1 0 0
0 0 0 0 0 0 0 0 0 0 1 1 1 1 1 1 1 1 1 1 0 0 0 0 0 0 0 0 0 0 0 0 0 0 0 0 0 0 0 0 1 1 0 0
0 0 0 0 0 0 0 0 0 1 1 1 1 1 1 1 1 1 1 0 0 0 0 0 0 0 0 0 0 0 0 0 0 0 0 0 0 0 0 0 1 1 0 0
0 0 0 0 0 0 1 1 1 1 1 1 1 1 1 1 1 1 0 0 0 0 0 0 0 0 0 0 0 0 0 0 0 0 0 0 0 0 0 0 1 0 0 0
0 0 0 0 0 0 1 1 1 1 1 1 1 1 1 1 0 0 0 0 0 0 0 0 0 0 0 0 0 0 0 0 0 0 0 0 0 0 0 1 1 0 0 0
0 0 0 0 0 0 0 0 0 1 1 1 1 1 0 0 0 0 0 0 0 0 0 0 0 0 1 1 0 0 0 0 0 0 0 0 0 0 1 1 0 0 0 0
0 0 0 0 0 0 0 0 0 0 0 0 0 0 0 0 0 0 0 0 0 0 0 0 0 0 0 0 0 0 0 0 0 0 0 0 0 0 0 0 0 0 0 0
0 0 0 0 0 0 0 0 0 0 0 0 0 0 0 0 0 0 0 0 0 0 0 0 0 0 0 0 0 0 0 0 0 0 0 0 0 0 0 0 0 0 0 0
0 0 0 0 0 0 0 0 0 0 0 0 0 0 0 0 0 0 0 0 0 0 0 0 0 0 0 0 0 0 0 0 0 0 0 0 0 0 0 0 0 0 0 0
Wind_Speed
14 14 13 12 11 11 11 11 9 5 3 3 3 1 2 4 4 4 5 5 5 4 4 4 4 4 3 2 2 3 3 3 3 3 2 2 2 3 3 3 3 3 3 3
13 14 13 13 13 12 12 11 8 5 2 1 3 1 2 2 2 4 5 4 3 4 4 3 3 3 2 2 2 2 2 2 2 2 2 2 2 2 3 3 3 3 3 3
11 13 13 13 10 9 7 6 5 3 1 1 3 2 1 2 1 3 4 4 3 3 4 3 2 2 2 2 2 2 2 1 1 1 1 2 3 2 2 3 3 3 4 4
10 11 13 7 6 5 5 5 3 1 1 1 2 2 3 3 3 3 4 3 3 2 2 3 2 1 1 2 2 1 1 1 1 1 1 1 2 2 2 2 3 3 4 4
8 11 11 7 4 5 5 4 2 1 2 1 1 0 3 5 5 3 3 2 2 1 2 3 2 1 1 1 2 1 1 1 1 1 1 2 2 2 2 3 3 3 3 3
9 11 10 4 3 5 5 4 4 3 1 1 2 1 2 4 4 3 3 3 2 2 3 3 2 1 0 0 1 0 0 1 1 1 2 2 2 2 2 3 3 4 3 3
11 11 5 3 4 5 5 2 5 4 3 2 2 1 2 2 3 3 2 3 3 3 2 2 2 1 0 1 1 1 1 1 1 1 2 3 2 2 2 3 3 4 4 4
8 10 5 5 4 3 4 5 5 4 4 4 3 2 2 2 3 2 1 1 2 2 2 2 2 1 1 1 2 2 1 1 1 2 3 2 1 2 3 3 4 4 3 4
2 2 3 5 5 4 3 3 4 3 4 4 3 2 2 2 1 1 2 1 1 1 1 1 2 1 1 1 1 1 1 2 2 3 3 2 2 3 3 3 3 3 3 3
2 2 1 3 4 3 3 3 3 3 3 2 2 2 2 1 1 1 1 1 1 2 1 1 1 1 1 1 0 1 1 2 2 3 3 2 2 2 3 3 3 3 3 4
3 2 2 1 2 2 3 4 4 4 4 3 3 3 2 1 1 1 1 1 1 1 1 1 2 1 1 1 1 2 2 3 3 4 3 2 3 3 3 2 2 3 3 3
2 1 2 1 1 2 3 3 4 4 4 4 4 4 3 2 1 1 2 1 1 1 1 1 1 1 0 0 1 2 3 3 4 4 2 3 3 3 2 3 3 3 4 3
3 2 1 2 2 3 2 3 3 4 4 5 5 4 3 2 2 2 2 1 1 1 1 1 2 2 1 1 1 2 3 4 4 4 3 4 3 3 3 2 3 4 4 5
3 3 3 3 3 4 4 3 4 4 4 4 4 4 2 1 1 2 3 2 2 1 2 2 2 2 2 2 2 3 4 5 5 4 4 4 4 4 4 4 3 2 3 5
1 2 3 3 3 4 4 4 4 4 4 4 3 3 2 2 1 2 2 2 2 1 2 2 3 3 3 3 4 4 5 4 4 5 5 4 4 5 5 4 4 3 2 2
3 4 5 4 4 4 5 5 4 4 3 3 3 3 2 2 2 2 2 2 2 2 2 2 3 3 3 3 4 4 4 5 5 5 5 4 4 5 4 3 3 4 3 2
5 5 5 4 4 5 5 5 4 4 3 3 2 3 2 2 2 2 2 2 2 2 2 2 3 4 3 3 4 4 5 4 6 6 5 5 5 5 4 4 4 4 3 2
5 5 5 5 4 4 5 5 5 4 3 2 2 2 2 2 3 2 2 2 2 2 2 3 3 4 4 4 4 4 5 5 5 4 4 5 5 5 4 4 4 4 3 2
5 5 4 4 4 4 4 4 4 3 2 2 2 2 2 2 2 2 2 2 2 3 3 3 3 5 4 3 4 4 5 5 5 4 4 4 5 5 4 4 4 3 3 3
4 3 3 3 4 3 3 3 2 2 2 1 1 1 2 2 2 2 2 3 3 2 2 2 3 4 3 3 5 5 5 5 5 4 4 4 4 4 5 5 4 4 3 3
3 2 2 3 3 3 3 2 2 2 1 1 1 1 2 2 3 3 3 3 1 1 2 3 3 3 2 3 5 5 5 5 4 4 4 4 4 4 4 4 4 4 3 3
2 2 2 2 2 2 2 2 2 1 1 1 1 2 2 2 2 3 2 2 2 1 2 3 2 2 3 5 4 4 4 4 4 4 4 4 4 4 4 4 3 3 3 3
1 2 2 2 2 2 1 1 1 1 1 1 2 2 2 2 3 2 2 1 1 1 2 3 2 2 4 5 5 4 4 4 4 4 4 3 3 3 4 4 3 3 3 3
1 1 1 1 1 2 1 1 1 1 0 0 1 1 2 2 2 2 2 2 2 2 2 1 2 3 4 4 4 3 3 3 4 4 4 3 3 3 3 3 3 2 3 4
1 1 1 1 2 1 1 1 1 1 1 1 1 1 1 1 2 2 2 2 1 2 2 2 4 4 4 5 4 3 3 3 3 3 3 4 4 3 3 2 2 3 3 3
2 2 1 1 2 2 1 1 1 1 1 1 1 1 1 1 1 2 2 3 3 3 3 2 2 3 3 4 3 3 3 3 3 3 3 3 4 4 3 3 4 3 3 3
2 2 1 2 2 2 2 1 1 2 1 1 2 2 1 1 2 2 3 3 3 2 2 2 2 2 3 3 3 3 3 3 3 3 3 3 3 3 3 4 3 3 3 3
Wind_Direction
274 280 281 279 267 253 255 264 270 255 239 187 166 192 106 110 118 118 112 104 106 113 120 129 135 135 139 160 159 161 160 173 174 182 192 199 207 213 221 232 242 244 251 254
276 274 274 269 264 260 254 256 255 251 248 107 123 92 93 120 142 127 119 111 104 105 108 113 128 139 146 148 146 142 154 165 161 177 191 204 211 218 226 240 255 256 258 260
277 274 273 262 261 264 268 274 281 286 318 42 55 21 60 103 113 113 116 112 106 109 113 112 111 124 154 158 151 158 170 160 155 179 225 237 245 230 237 249 255 257 261 261
265 273 262 266 283 279 273 281 297 320 86 52 62 29 26 70 88 92 102 106 103 107 122 128 129 135 161 147 146 151 167 181 179 217 241 267 270 264 256 259 262 258 263 265
260 262 259 257 287 302 284 285 349 3 64 17 25 131 78 72 74 60 60 78 102 111 117 102 98 110 131 160 153 167 197 219 214 239 250 262 270 274 272 269 266 263 264 261
256 265 268 279 326 315 283 246 29 24 47 328 310 285 64 56 79 67 38 34 56 74 94 91 76 47 31 126 115 160 263 297 289 270 257 255 257 262 267 267 267 269 265 258
255 263 264 331 338 308 274 353 7 2 1 338 326 11 96 58 68 64 43 15 23 38 62 83 83 72 14 47 33 8 1 323 294 282 272 254 253 267 274 275 276 272 269 264
253 259 265 355 356 10 18 7 358 356 1 13 27 75 93 76 60 27 42 354 360 36 47 70 89 94 73 59 37 19 348 332 314 275 268 271 259 260 265 265 269 269 269 273
284 296 14 23 34 41 25 357 348 350 1 10 19 25 32 52 83 4 338 349 346 355 40 56 96 114 91 62 41 340 326 322 309 292 283 269 254 254 257 257 270 279 283 279
255 209 347 31 42 15 17 0 349 345 347 354 348 340 1 23 11 333 334 334 343 328 342 16 11 100 88 60 356 304 305 295 285 282 281 286 275 264 266 271 272 276 285 287
257 274 295 3 29 14 9 355 349 346 345 348 338 328 327 328 337 336 327 338 341 333 343 343 350 16 68 57 358 322 300 284 277 271 275 272 277 285 270 263 259 267 294 306
260 258 261 306 358 3 351 347 351 346 344 333 325 321 319 313 319 297 293 314 314 308 299 308 306 298 16 25 316 295 286 286 281 281 278 274 269 283 306 251 247 235 247 266
337 332 309 329 339 343 328 329 338 334 333 329 326 325 325 329 324 313 304 301 296 298 301 282 278 297 315 304 288 284 286 286 287 289 287 283 281 278 283 281 267 258 254 258
20 2 336 318 310 318 317 330 331 319 319 317 310 312 324 326 331 324 317 326 321 324 310 303 319 333 334 314 299 287 281 279 286 287 282 282 287 290 288 284 285 275 255 242
322 293 286 293 296 308 315 312 303 299 309 319 326 326 318 318 328 331 332 330 331 320 314 318 327 328 328 310 305 295 289 288 294 300 297 298 302 298 295 296 296 293 290 271
284 284 287 292 299 299 300 301 300 302 316 326 331 332 333 338 333 323 329 332 320 309 316 318 314 312 315 309 306 294 288 288 288 290 293 294 292 291 293 298 302 304 295 289
264 266 281 280 281 290 299 304 305 304 308 311 328 334 329 329 321 315 306 308 312 315 319 314 309 311 308 301 293 290 291 287 283 286 291 295 295 296 297 293 291 289 290 290
269 265 269 275 281 292 299 303 303 307 306 311 321 319 309 302 292 297 298 301 313 322 318 312 313 307 302 302 299 296 294 291 286 290 293 291 293 293 293 291 287 292 296 299
260 263 267 271 277 289 297 298 302 308 311 325 320 308 305 311 316 317 308 301 292 287 293 313 312 299 300 314 313 292 286 284 283 283 286 288 285 290 293 294 295 301 308 312
268 268 268 282 289 292 291 293 295 296 301 310 298 302 318 325 319 308 297 286 284 306 306 291 281 289 297 321 312 292 291 291 291 293 296 299 301 305 308 309 309 309 309 306
275 276 280 278 287 295 290 287 288 285 297 300 296 299 311 312 312 307 295 293 306 342 320 291 277 294 316 321 296 289 293 297 298 302 301 301 305 310 312 316 316 312 314 318
300 308 308 310 312 320 340 350 342 325 301 311 301 301 304 309 305 303 300 303 308 359 303 296 308 347 322 306 292 287 286 291 297 300 299 302 308 312 315 321 319 317 326 332
311 330 333 335 328 322 324 318 336 349 327 307 303 303 311 305 293 293 309 311 297 303 295 318 348 335 310 300 298 296 302 303 302 302 305 307 306 312 317 318 323 334 346 347
291 317 322 322 310 284 279 299 350 345 317 318 294 303 297 292 298 304 319 313 292 263 291 309 245 274 284 289 292 296 305 303 301 303 307 311 313 317 320 319 323 334 343 345
308 294 276 278 271 262 249 283 275 255 251 255 254 245 264 285 304 316 315 304 266 257 282 251 239 244 265 284 292 303 308 308 312 319 323 324 322 319 322 333 342 341 341 340
259 252 224 237 267 277 265 265 282 290 296 293 296 290 292 290 293 291 280 280 281 274 281 287 265 253 277 293 306 316 319 317 311 312 326 327 323 323 330 338 337 334 338 346
240 235 228 244 238 246 264 276 292 302 318 331 315 306 304 302 298 297 303 310 311 302 303 304 301 290 290 302 314 315 312 317 329 338 334 329 329 330 333 337 336 345 351 354